This is the latest recevied weather packets stored in our database for station/object IT9CNT. If no packets are shown the sender has not sent any weather packets the latest 10 day(s).
| Time | Temp. | Humidity | Pressure | Rain* | Wind** | Luminosity | Snow |
|---|---|---|---|---|---|---|---|
| 1787430063 | 27.78° C | 91% | 1013.7 hPa | 5.08 mm | - | - | - |
| 1787430004 | 27.78° C | 91% | 1013.4 hPa | 5.59 mm | - | - | - |
| 1787429943 | 27.78° C | 91% | 1013.5 hPa | 6.1 mm | - | - | - |
| 1787429883 | 27.78° C | 91% | 1013.5 hPa | 6.35 mm | - | - | - |
| 1787429823 | 27.78° C | 91% | 1013.3 hPa | 6.35 mm | - | - | - |
| 1787429763 | 27.78° C | 91% | 1013.4 hPa | 6.86 mm | - | - | - |
| 1787429703 | 27.78° C | 91% | 1013.3 hPa | 7.87 mm | - | - | - |
| 1787429644 | 27.78° C | 91% | 1013.4 hPa | 7.87 mm | - | - | - |
| 1787429583 | 27.78° C | 90% | 1013.3 hPa | 7.87 mm | - | - | - |
| 1787429523 | 27.78° C | 91% | 1013.4 hPa | 8.64 mm | - | - | - |
| 1787429463 | 27.78° C | 91% | 1013.4 hPa | 8.64 mm | - | - | - |
| 1787429403 | 27.78° C | 91% | 1013.3 hPa | 8.64 mm | - | - | - |
| 1787429343 | 27.78° C | 91% | 1013.3 hPa | 9.65 mm | - | - | - |
| 1787429284 | 27.22° C | 92% | 1013.3 hPa | 9.65 mm | - | - | - |
| 1787429223 | 27.22° C | 93% | 1013.4 hPa | 9.91 mm | - | - | - |
| 1787429163 | 27.22° C | 94% | 1013.3 hPa | 9.91 mm | - | - | - |
| 1787429103 | 27.22° C | 94% | 1013.3 hPa | 10.41 mm | - | - | - |
| 1787429043 | 26.67° C | 95% | 1013 hPa | 10.92 mm | - | - | - |
| 1787428983 | 26.67° C | 96% | 1013.4 hPa | 12.19 mm | - | - | - |
| 1787428923 | 26.67° C | 97% | 1013.3 hPa | 12.19 mm | - | - | - |
| 1787428863 | 26.67° C | 97% | 1013.1 hPa | 12.19 mm | - | - | - |
| 1787428804 | 26.67° C | 98% | 1013.3 hPa | 12.19 mm | - | - | - |
| 1787428743 | 26.67° C | 98% | 1013.2 hPa | 12.19 mm | - | - | - |
| 1787428683 | 26.67° C | 98% | 1013.2 hPa | 12.7 mm | - | - | - |
| 1787428623 | 26.67° C | 98% | 1013.4 hPa | 12.95 mm | - | - | - |
* Rain latest hour (hover to see other rain measurements)
** Current wind speed in m/s (hover to see current wind gust speed)